Leadville, CO

6:53 AM MDT on July 21, 2017 (GMT -0600)
Lake County

Weather History for KLXV - October, 2012

Change the Weather History Date:

Monday, October 1, 2012

  Actual Average Record
Temperature  
Mean Temperature 45 °F -  
Max Temperature 59 °F 55 °F 68 °F (2010)
Min Temperature 30 °F 27 °F 13 °F (1985)
Degree Days  
Heating Degree Days 20 24  
Month to date heating degree days 20 24  
Since 1 July heating degree days 1126 1322  
Cooling Degree Days 0 0  
Month to date cooling degree days 0 0  
Year to date cooling degree days 0 0  
Moisture  
Dew Point 23 °F    
Average Humidity 48    
Maximum Humidity 72    
Minimum Humidity 23    
Precipitation  
Precipitation 0.00 in 0.03 in 0.49 in (1998)
Month to date precipitation 0.00 0.03  
Year to date precipitation 9.39 10.06  
Sea Level Pressure  
Sea Level Pressure 30.09 in    
Wind  
Wind Speed 8 mph (NNE)    
Max Wind Speed 21 mph    
Max Gust Speed 29 mph    
Visibility 10 miles    
Events      
T = Trace of Precipitation, MM = Missing Value Source: NWS Daily Summary

Daily Weather History Graph

Daily Weather History Graph

Search for Another Location

Airport or City:

Trip Planner

Search our weather history database for the weather conditions in past years. The results will help you decide how hot, cold, wet, or windy it might be!

Date:

Astronomy

Oct. 01, 2012 Rise Set
Actual Time 7:01 AM MDT 6:46 PM MDT
Civil Twilight 6:35 AM MDT 7:13 PM MDT
Nautical Twilight 6:04 AM MDT 7:44 PM MDT
Astronomical Twilight 5:32 AM MDT 8:15 PM MDT
Moon 7:26 PM MDT (10/1) 8:32 AM MDT (10/1)
Length of Visible Light 12h 38m
Length of Day
11h 45m
Full, 97% of the Moon is Illuminated
Oct 1
Full
Oct 8
Last Quarter
Oct 15
New
Oct 21
First Quarter
Oct 29
Full

Hourly Weather History & Observations

Time (MDT) Temp. Windchill Dew Point Humidity Pressure Visibility Wind Dir Wind Speed Gust Speed Precip Events Conditions
12:53 AM 39.0 °F 36.8 °F 25.0 °F 57% 30.07 in 10.0 mi ENE 3.5 mph - N/A   Clear
1:53 AM 32.0 °F 24.8 °F 24.1 °F 73% 30.12 in 10.0 mi ENE 8.1 mph - N/A   Partly Cloudy
2:53 AM 35.1 °F 30.1 °F 25.0 °F 67% 30.09 in 10.0 mi ENE 5.8 mph - N/A   Mostly Cloudy
3:53 AM 36.0 °F 31.1 °F 26.1 °F 67% 30.07 in 10.0 mi NE 5.8 mph - N/A   Overcast
4:53 AM 37.0 °F 31.6 °F 26.1 °F 65% 30.09 in 10.0 mi NE 6.9 mph - N/A   Scattered Clouds
5:53 AM 33.1 °F 26.1 °F 24.1 °F 70% 30.12 in 10.0 mi ENE 8.1 mph - N/A   Partly Cloudy
6:53 AM 34.0 °F 28.8 °F 25.0 °F 70% 30.14 in 10.0 mi NE 5.8 mph - N/A   Scattered Clouds
7:53 AM 33.1 °F 28.7 °F 25.0 °F 72% 30.19 in 10.0 mi NE 4.6 mph - N/A   Clear
8:53 AM 45.0 °F 42.6 °F 27.0 °F 49% 30.12 in 10.0 mi North 4.6 mph - N/A   Clear
9:53 AM 45.0 °F 40.6 °F 28.0 °F 52% 30.14 in 10.0 mi South 8.1 mph - N/A   Clear
10:53 AM 52.0 °F - 26.1 °F 37% 30.11 in 10.0 mi North 10.4 mph 18.4 mph N/A   Scattered Clouds
11:53 AM 53.1 °F - 21.9 °F 30% 30.11 in 10.0 mi North 19.6 mph 26.5 mph N/A   Clear
12:53 PM 55.0 °F - 19.0 °F 24% 30.07 in 10.0 mi NNW 15.0 mph 23.0 mph N/A   Clear
1:53 PM 57.0 °F - 19.0 °F 23% 30.07 in 10.0 mi NNW 11.5 mph - N/A   Clear
2:53 PM 57.9 °F - 19.0 °F 22% 30.03 in 10.0 mi NNE 9.2 mph 25.3 mph N/A   Clear
3:53 PM 57.0 °F - 19.9 °F 24% 30.03 in 10.0 mi Variable 4.6 mph 17.3 mph N/A   Clear
4:53 PM 57.0 °F - 19.0 °F 23% 30.01 in 10.0 mi NNE 12.7 mph 18.4 mph N/A   Clear
5:53 PM 55.9 °F - 19.9 °F 25% 30.05 in 10.0 mi NW 12.7 mph 18.4 mph N/A   Clear
6:53 PM 50.0 °F - 21.0 °F 32% 30.09 in 10.0 mi NNW 5.8 mph - N/A   Clear
7:53 PM 44.1 °F 41.5 °F 21.0 °F 40% 30.14 in 10.0 mi NE 4.6 mph - N/A   Clear
8:53 PM 43.0 °F 40.3 °F 21.0 °F 42% 30.08 in 10.0 mi ENE 4.6 mph - N/A   Clear
9:53 PM 42.1 °F 40.2 °F 21.0 °F 43% 30.08 in 10.0 mi East 3.5 mph - N/A   Clear
10:53 PM 37.0 °F 30.4 °F 21.9 °F 54% 30.06 in 10.0 mi NE 9.2 mph - N/A   Clear
11:53 PM 36.0 °F 29.6 °F 21.9 °F 57% 30.05 in 10.0 mi NE 8.1 mph - N/A   Clear